Regional Weather Roundup
Issued by NWS

Home | Current Version | Previous Version | Graphics & Text | Print | Product List | Glossary On
Versions: 1 2 3 4 5 6 7 8 9 10 11 12 13 14 15 16 17 18 19 20 21 22 23 24 25 26 27 28 29 30 31 32 33 34 35 36 37 38 39 40 41 42 43 44 45 46 47 48 49 50
000
ASUS45 KCYS 190810
RWRWY

WYOMING REGIONAL WEATHER ROUNDUP
NATIONAL WEATHER SERVICE CHEYENNE WY
100 AM MST FRI DEC 19 2014

NOTE:  "FAIR" INDICATES FEW OR NO CLOUDS BELOW 12,000 FEET
WITH NO SIGNIFICANT WEATHER AND/OR OBSTRUCTIONS TO VISIBILITY.

WYZ001-190900-
YELLOWSTONE NATIONAL PARK

CITY           SKY/WX    TMP DP  RH WIND       PRES   REMARKS
LK YELLOWSTONE   N/A     23  19  85 CALM      30.06S
W YELLOWSTONE  NOT AVBL

$$
WYZ002>013-054>058-071-098>099-190900-
NORTHERN WYOMING

CITY           SKY/WX    TMP DP  RH WIND       PRES   REMARKS
JACKSON        CLOUDY    27  25  93 S7        30.08F WCI  19
CODY           FAIR      36  18  48 S20G26    29.98F WCI  25
GREYBULL       FAIR      12   9  87 CALM      30.07S
WORLAND        FAIR       1  -3  83 S5        30.05F WCI  -9
SHERIDAN       FAIR      26  13  57 SE3       29.97F
BUFFALO        FAIR      30  11  45 W7        29.98S WCI  23
GILLETTE       FAIR      28  14  55 W5        29.98F WCI  23
HULETT           N/A    N/A N/A N/A MISG        N/A
NEWCASTLE      FAIR      19  16  86 CALM      30.02F

$$
WYZ014>020-022>026-101>103-190900-
CENTRAL WYOMING

CITY           SKY/WX    TMP DP  RH WIND       PRES   REMARKS
BIG PINEY      FAIR       8   4  83 N3        30.12F
PINEDALE       FAIR      18  16  93 NW5       30.12S WCI  11
DUBOIS         CLOUDY    27  16  63 N9        30.03F WCI  17
LANDER         FAIR       0  -4  83 SE7       30.05F FOG     WCI -13
RIVERTON       FOG        9   5  84 NW6       30.07F VSB 1/2 WCI  -1
CASPER         FAIR      22  14  71 SW12      30.04S WCI  10
DOUGLAS        FAIR      13   9  84 NE3       30.04S

$$
WYZ021-027>030-104>119-190900-
SOUTHERN WYOMING

CITY           SKY/WX    TMP DP  RH WIND       PRES   REMARKS
EVANSTON       FAIR      19  17  92 SW10      30.14F WCI   7
KEMMERER       FAIR      25  21  86 W9        30.12S WCI  15
FORT BRIDGER   FAIR      22  18  83 SW9       30.16F WCI  12
ROCK SPRINGS   FAIR      21  17  84 SW13      30.12F WCI   9
DIXON          FLURRIES N/A N/A N/A NE5       30.18S
RAWLINS        FAIR      21  18  88 SW12      30.09F WCI   9
SARATOGA       FAIR      12  10  92 CALM      30.11S
LARAMIE        FAIR      12   6  77 W6        30.04F WCI   3
CHEYENNE       FAIR      23  11  60 SW8       30.04F WCI  14
TORRINGTON     FAIR     N/A N/A N/A SE7       30.04F
PINE BLUFFS    FAIR      21  16  79 W9        30.06F WCI  11

$$


USA.gov is the U.S. government's official web portal to all federal, state and local government web resources and services.